sat.trackr.live / text

‹ back to catalog

QIANFAN-77

NORAD 63163 · 2025-046E

PAYLOAD ACTIVE UNKNOWN

§ Identity

Operator
Country
PRC
Launch date
2025-03-11
Launch site
WSC
Launch vehicle
Mass (kg)
RCS (m²)

External: N2YO · Heavens-Above · Gunter

§ Orbital elements

Epoch: 2026-05-25T03:56:08.082816Z

Period
103.14 min
Inclination
88.9696°
Eccentricity
0.0012644
Mean motion
13.96191876 rev/d
Perigee alt
897.8 km
Apogee alt
916.2 km
Semi-major
7,285.1 km
B*
5.0580e-5
RAAN
299.8457°
Arg perigee
293.0470°
Mean anomaly
66.9373°
Rev number
7,125

§ Raw data

QIANFAN-771 63163U 25046E   26145.16398244  .00000083  00000+0  50580-4 0  99932 63163  88.9696 299.8457 0012644 293.0470  66.9373 13.96191876 71253

JSON: /api/v1/satellites/63163 · /tle

For live sub-satellite position, see the globe view (requires WebGL).

§ Visibility from observer

Set your observer location to see the next 7 days of passes ≥ 10°. The values pass through the URL so the page stays shareable.

No JS? Fill the form by hand. The geolocation button needs JavaScript.